Flag for U.S.A. Weather past 2 weeks in Hereford, Texas, U.S.A.

57 °F

Mostly cloudy.

Feels Like: 56 °F
Forecast: 56 / 77 °F
Wind: 7 mph from Northeast

Location: Clovis Municipal

Current Time: Oct 8, 2015 at 1:50:40 PM

Latest Report: Oct 8, 2015 at 1:15 PM

Visibility: 3 mi

Pressure: 30.23 "Hg (26.31 "Hg at 1167m altitude)

Humidity: 94%

Dew point: 55 °F

Location of HerefordLocation

Historic Weather in Hereford — Graph


Hereford temperature yesterday

Maximum temperature yesterday: 72 °F (at 3:15 PM)
Minimum temperature yesterday: 55 °F (at 6:55 AM)
Average temperature yesterday: 60 °F

Past Weeks' High & Low Weather Summary

High88 °F (Oct 1, 4:15 PM)94% (Sep 24, 6:15 AM)30.33 "Hg (Sep 24, 6:15 AM)
Low50 °F (Oct 3, 7:55 AM)25% (Oct 1, 4:15 PM)29.92 "Hg (Oct 3, 5:35 PM)
Average64 °F70%30.15 "Hg
* Reported Sep 23 12:15 PM — Oct 8 12:55 PM, Hereford, Weather by CustomWeather, © 2015

Note: Actual official high and low records may vary slightly from our data, if they occured in-between our weather recording intervals... More about our weather records


Hereford weather history for previous 24 hours

Time TempWeatherWind HumidityBarometerVisibility
12:55 PM
Thu, Oct 8
57 °FLow clouds.7 mph94%30.23 "Hg2 mi
12:35 PM57 °FLow clouds.6 mph94%30.22 "Hg2 mi
12:15 PM57 °FOvercast.5 mph94%30.22 "Hg2 mi
11:55 AM57 °FMore clouds than sun.5 mph88%30.22 "Hg2 mi
11:35 AM57 °FMostly cloudy.6 mph88%30.22 "Hg5 mi
11:15 AM57 °FLow clouds.6 mph88%30.21 "Hg7 mi
10:55 AM57 °FLow clouds.6 mph88%30.21 "Hg10 mi
10:35 AM57 °FLow clouds.7 mph88%30.20 "Hg10 mi
10:15 AM57 °FLow clouds.8 mph88%30.20 "Hg10 mi
9:55 AM55 °FLow clouds.7 mph94%30.20 "Hg8 mi
9:35 AM55 °FOvercast.7 mph94%30.20 "Hg9 mi
9:15 AM55 °FOvercast.9 mph88%30.19 "Hg10 mi
8:55 AM55 °FOvercast.9 mph88%30.19 "Hg10 mi
8:35 AM55 °FOvercast.8 mph88%30.18 "Hg10 mi
8:15 AM55 °FOvercast.8 mph94%30.18 "Hg10 mi
7:55 AM55 °FOvercast.9 mph88%30.17 "Hg10 mi
7:35 AM55 °FOvercast.9 mph94%30.18 "Hg10 mi
7:15 AM55 °FOvercast.10 mph88%30.16 "Hg10 mi
6:55 AM55 °FMostly cloudy.6 mph88%30.16 "Hg10 mi
6:35 AM55 °FMostly cloudy.6 mph88%30.16 "Hg10 mi
6:15 AM55 °FOvercast.No wind88%30.15 "Hg10 mi
5:55 AM55 °FOvercast.No wind88%30.15 "Hg9 mi
5:35 AM55 °FPartly cloudy.5 mph88%30.15 "Hg7 mi
5:15 AM55 °FOvercast.7 mph88%30.15 "Hg10 mi
4:55 AM55 °FOvercast.10 mph88%30.15 "Hg10 mi
4:35 AM55 °FOvercast.12 mph88%30.15 "Hg10 mi
4:15 AM54 °FOvercast.13 mph94%30.15 "Hg10 mi
3:55 AM55 °FOvercast.20 mph88%30.14 "Hg10 mi
3:35 AM55 °FOvercast.17 mph94%30.14 "Hg10 mi
3:15 AM55 °FOvercast.15 mph94%30.16 "Hg10 mi
2:55 AM55 °FOvercast.14 mph94%30.17 "Hg10 mi
2:35 AM55 °FMostly cloudy.10 mph94%30.18 "Hg10 mi
2:15 AM55 °FOvercast.9 mph94%30.19 "Hg10 mi
1:55 AM55 °FOvercast.5 mph88%30.20 "Hg10 mi
1:35 AM55 °FOvercast.5 mph94%30.21 "Hg6 mi
1:15 AM55 °FOvercast.5 mph94%30.23 "Hg5 mi
12:55 AM55 °FOvercast.6 mph94%30.23 "Hg7 mi
12:35 AM55 °FOvercast.5 mph94%30.24 "Hg5 mi
12:15 AM55 °FOvercast.3 mph94%30.25 "Hg5 mi
11:55 PM
Wed, Oct 7
55 °FMostly cloudy.6 mph94%30.25 "Hg8 mi
11:15 PM55 °FMostly cloudy.7 mph94%30.25 "Hg10 mi
10:55 PM55 °FThunderstorms. Overcast.10 mph94%30.25 "Hg9 mi
10:35 PM55 °FThunderstorms. Mostly cloudy.10 mph94%30.24 "Hg7 mi
10:15 PM55 °FThunderstorms. Overcast.18 mph94%30.21 "Hg9 mi
9:55 PM55 °FThunderstorms. Mostly cloudy.16 mph94%30.20 "Hg10 mi
9:35 PM57 °FThundershowers. Overcast.18 mph88%30.18 "Hg10 mi
9:15 PM57 °FThundershowers. Overcast.17 mph88%30.17 "Hg10 mi
8:55 PM55 °FThundershowers. Mostly cloudy.20 mph94%30.17 "Hg10 mi
8:35 PM55 °FThunderstorms. Mostly cloudy.18 mph88%30.18 "Hg10 mi
8:15 PM55 °FThunderstorms. Broken clouds.20 mph94%30.16 "Hg10 mi
7:55 PM57 °FThunderstorms. Broken clouds.17 mph88%30.17 "Hg10 mi
7:35 PM57 °FThunderstorms. Broken clouds.20 mph88%30.17 "Hg9 mi
7:15 PM57 °FThunderstorms. Cloudy.28 mph88%30.16 "Hg3 mi
6:35 PM57 °FThunderstorms. More clouds than sun.17 mph88%30.12 "Hg10 mi
6:15 PM59 °FThunderstorms. Overcast.20 mph88%30.11 "Hg10 mi
5:55 PM59 °FThunderstorms. More clouds than sun.18 mph82%30.10 "Hg10 mi
5:35 PM61 °FThunderstorms. Mostly cloudy.7 mph83%30.13 "Hg1 mi
4:55 PM68 °FThundershowers. Mostly cloudy.14 mph69%30.08 "Hg0 mi
4:15 PM72 °FPartly sunny.12 mph61%30.13 "Hg10 mi
3:55 PM70 °FBroken clouds.10 mph64%30.13 "Hg10 mi
3:35 PM72 °FScattered clouds.13 mph61%30.15 "Hg10 mi
3:15 PM72 °FOvercast.14 mph61%30.16 "Hg10 mi
2:55 PM70 °FCloudy.12 mph64%30.17 "Hg10 mi
2:35 PM70 °FMostly cloudy.12 mph64%30.18 "Hg10 mi
2:15 PM70 °FOvercast.13 mph64%30.19 "Hg10 mi
1:55 PM68 °FPartly sunny.12 mph69%30.20 "Hg10 mi
1:35 PM68 °FPassing clouds.13 mph69%30.21 "Hg10 mi
1:15 PM66 °FPassing clouds.13 mph73%30.21 "Hg10 mi
Weather by CustomWeather, © 2015

See weather overviewHow to use our weather pages